| time (UTC) | temp F | wind direction | speed knots | gust knots | rain 1hr in | rain 24hr in | rain mn in | humidity % | barometer mb |
| 20260906101704 | 90 | 315 | 4.3 | 0.0 | 0.00 | 0.00 | 0.00 | 26 | 1012.8 |
| 20260906101204 | 90 | 315 | 6.1 | 0.0 | 0.00 | 0.00 | 0.00 | 28 | 1012.9 |
| 20260906100704 | 89 | 225 | 2.6 | 0.0 | 0.00 | 0.00 | 0.00 | 29 | 1012.9 |
| 20260906100204 | 89 | 225 | 2.6 | 0.0 | 0.00 | 0.00 | 0.00 | 29 | 1012.8 |
| 20260906095205 | 88 | 23 | 3.5 | 0.0 | 0.00 | 0.00 | 0.00 | 30 | 1012.8 |
| 20260906094704 | 87 | 0.0 | 0.0 | 0.00 | 0.00 | 0.00 | 30 | ||
| 20260906094204 | 88 | 315 | 6.1 | 0.0 | 0.00 | 0.00 | 0.00 | 30 | 1012.9 |
| 20260906093703 | 87 | 338 | 4.3 | 0.0 | 0.00 | 0.00 | 0.00 | 30 | 1013.1 |
| 20260906090704 | 87 | 180 | 2.6 | 0.0 | 0.00 | 0.00 | 0.00 | 30 | 1013.2 |
| 20260906085204 | 87 | 225 | 2.6 | 0.0 | 0.00 | 0.00 | 0.00 | 30 | 1013.2 |
| 20260906084704 | 86 | 315 | 6.1 | 0.0 | 0.00 | 0.00 | 0.00 | 30 | 1013.2 |
| 20260906083704 | 86 | 0 | 4.3 | 0.0 | 0.00 | 0.00 | 0.00 | 30 | 1013.4 |
| 20260906083204 | 86 | 45 | 6.1 | 0.0 | 0.00 | 0.00 | 0.00 | 30 | 1013.3 |
| 20260906082704 | 86 | 90 | 4.3 | 0.0 | 0.00 | 0.00 | 0.00 | 30 | 1013.3 |
| 20260906082204 | 86 | 315 | 4.3 | 0.0 | 0.00 | 0.00 | 0.00 | 30 | 1013.2 |
| 20260906080704 | 86 | 270 | 2.6 | 0.0 | 0.00 | 0.00 | 0.00 | 31 | 1013.2 |
| 20260906080204 | 86 | 225 | 1.7 | 0.0 | 0.00 | 0.00 | 0.00 | 31 | 1013.3 |
| 20260906075703 | 86 | 45 | 2.6 | 0.0 | 0.00 | 0.00 | 0.00 | 32 | 1013.3 |
| 20260906075203 | 85 | 45 | 1.7 | 0.0 | 0.00 | 0.00 | 0.00 | 30 | 1013.2 |
| 20260906074705 | 85 | 315 | 1.7 | 0.0 | 0.00 | 0.00 | 0.00 | 30 | 1013.2 |
| 20260906074205 | 85 | 315 | 5.2 | 0.0 | 0.00 | 0.00 | 0.00 | 31 | 1013.2 |
| 20260906073704 | 85 | 315 | 1.7 | 0.0 | 0.00 | 0.00 | 0.00 | 31 | 1013.1 |
| 20260906073204 | 85 | 0 | 1.7 | 0.0 | 0.00 | 0.00 | 0.00 | 30 | 1013.0 |
| 20260906072705 | 85 | 315 | 3.5 | 0.0 | 0.00 | 0.00 | 0.00 | 30 | 1013.2 |
| 20260906072204 | 85 | 315 | 3.5 | 0.0 | 0.00 | 0.00 | 0.00 | 30 | 1013.0 |
| 20260906071704 | 85 | 45 | 3.5 | 0.0 | 0.00 | 0.00 | 0.00 | 30 | 1013.0 |
| 20260906071204 | 84 | 315 | 1.7 | 0.0 | 0.00 | 0.00 | 0.00 | 31 | 1012.9 |
| 20260906070704 | 84 | 45 | 3.5 | 0.0 | 0.00 | 0.00 | 0.00 | 30 | 1012.9 |
| 20260906070204 | 85 | 270 | 1.7 | 0.0 | 0.00 | 0.00 | 0.00 | 31 | 1012.9 |
| 20260906065704 | 84 | 315 | 0.0 | 0.0 | 0.00 | 0.00 | 0.00 | 31 | 1012.8 |
| 20260906065204 | 84 | 225 | 1.7 | 0.0 | 0.00 | 0.00 | 0.00 | 31 | 1012.8 |
| 20260906064204 | 82 | 270 | 0.9 | 0.0 | 0.00 | 0.00 | 0.00 | 32 | 1012.5 |
| 20260906063704 | 82 | 270 | 1.7 | 0.0 | 0.00 | 0.00 | 0.00 | 33 | 1012.5 |
| 20260906063204 | 80 | 225 | 1.7 | 0.0 | 0.00 | 0.00 | 0.00 | 39 | 1012.5 |
| 20260906062704 | 79 | 315 | 4.3 | 0.0 | 0.00 | 0.00 | 0.00 | 38 | 1012.5 |
| 20260906062204 | 79 | 315 | 4.3 | 0.0 | 0.00 | 0.00 | 0.00 | 39 | 1012.2 |
| 20260906061205 | 78 | 338 | 1.7 | 0.0 | 0.00 | 0.00 | 0.00 | 40 | 1012.2 |
| 20260906060704 | 78 | 270 | 3.5 | 0.0 | 0.00 | 0.00 | 0.00 | 39 | 1012.0 |
| 20260906060204 | 78 | 315 | 1.7 | 0.0 | 0.00 | 0.00 | 0.00 | 41 | 1012.2 |
| 20260906055704 | 78 | 180 | 1.7 | 0.0 | 0.00 | 0.00 | 0.00 | 43 | 1012.1 |
| 20260906055204 | 77 | 270 | 1.7 | 0.0 | 0.00 | 0.00 | 0.00 | 46 | 1012.1 |
| 20260906054704 | 75 | 225 | 1.7 | 0.0 | 0.00 | 0.00 | 0.00 | 50 | 1012.2 |
| 20260906054203 | 74 | 315 | 0.9 | 0.0 | 0.00 | 0.00 | 0.00 | 50 | 1012.2 |
| 20260906053704 | 73 | 203 | 0.9 | 0.0 | 0.00 | 0.00 | 0.00 | 50 | 1012.2 |
| 20260906052703 | 73 | 225 | 0.0 | 0.0 | 0.00 | 0.00 | 0.00 | 50 | 1012.2 |
| 20260906052204 | 72 | 315 | 1.7 | 0.0 | 0.00 | 0.00 | 0.00 | 53 | 1012.2 |
| 20260906051204 | 71 | 270 | 0.9 | 0.0 | 0.00 | 0.00 | 0.00 | 54 | 1012.0 |
| 20260906050703 | 71 | 225 | 0.0 | 0.0 | 0.00 | 0.00 | 0.00 | 54 | 1012.2 |
| 20260906045704 | 71 | 180 | 1.7 | 0.0 | 0.00 | 0.00 | 0.00 | 53 | 1011.9 |
| 20260906045204 | 70 | 225 | 0.9 | 0.0 | 0.00 | 0.00 | 0.00 | 52 | 1012.1 |
| 20260906044204 | 68 | 225 | 0.0 | 0.0 | 0.00 | 0.00 | 0.00 | 54 | 1012.0 |
| 20260906043704 | 68 | 225 | 0.0 | 0.0 | 0.00 | 0.00 | 0.00 | 54 | 1011.7 |
| 20260906043204 | 68 | 225 | 0.0 | 0.0 | 0.00 | 0.00 | 0.00 | 53 | 1011.5 |
| 20260906042704 | 67 | 225 | 0.0 | 0.0 | 0.00 | 0.00 | 0.00 | 54 | 1011.6 |
| 20260906041704 | 66 | 135 | 0.0 | 0.0 | 0.00 | 0.00 | 0.00 | 55 | 1011.3 |
| 20260906041204 | 66 | 225 | 0.0 | 0.0 | 0.00 | 0.00 | 0.00 | 56 | 1011.3 |
| 20260906040704 | 65 | 225 | 0.0 | 0.0 | 0.00 | 0.00 | 0.00 | 56 | 1011.3 |
| 20260906035204 | 65 | 225 | 0.0 | 0.0 | 0.00 | 0.00 | 0.00 | 56 | 1011.1 |
| 20260906034204 | 65 | 225 | 0.0 | 0.0 | 0.00 | 0.00 | 0.00 | 56 | 1011.1 |
| 20260906033704 | 66 | 225 | 0.0 | 0.0 | 0.00 | 0.00 | 0.00 | 57 | 1011.1 |
| 20260906033203 | 65 | 180 | 0.0 | 0.0 | 0.00 | 0.00 | 0.00 | 57 | 1011.2 |
| 20260906032203 | 65 | 180 | 0.9 | 0.0 | 0.00 | 0.00 | 0.00 | 59 | 1011.0 |
| 20260906031703 | 65 | 225 | 0.0 | 0.0 | 0.00 | 0.00 | 0.00 | 59 | 1011.0 |
| 20260906031203 | 64 | 180 | 0.0 | 0.0 | 0.00 | 0.00 | 0.00 | 59 | 1011.2 |
| 20260906030204 | 64 | 225 | 0.0 | 0.0 | 0.00 | 0.00 | 0.00 | 59 | 1011.1 |
| 20260906025704 | 64 | 225 | 0.0 | 0.0 | 0.00 | 0.00 | 0.00 | 59 | 1011.1 |
| 20260906025204 | 64 | 225 | 0.0 | 0.0 | 0.00 | 0.00 | 0.00 | 58 | 1011.0 |
| 20260906024704 | 65 | 270 | 0.0 | 0.0 | 0.00 | 0.00 | 0.00 | 57 | 1011.1 |
| 20260906024204 | 65 | 270 | 0.0 | 0.0 | 0.00 | 0.00 | 0.00 | 57 | 1010.9 |
| 20260906023704 | 65 | 270 | 0.0 | 0.0 | 0.00 | 0.00 | 0.00 | 57 | 1011.0 |
| 20260906023204 | 65 | 225 | 0.0 | 0.0 | 0.00 | 0.00 | 0.00 | 56 | 1011.1 |
| 20260906022703 | 65 | 225 | 0.0 | 0.0 | 0.00 | 0.00 | 0.00 | 55 | 1011.0 |
| 20260906022204 | 65 | 225 | 0.0 | 0.0 | 0.00 | 0.00 | 0.00 | 55 | 1010.9 |
| 20260906021704 | 66 | 225 | 0.0 | 0.0 | 0.00 | 0.00 | 0.00 | 54 | 1010.9 |
| 20260906021203 | 66 | 225 | 0.0 | 0.0 | 0.00 | 0.00 | 0.00 | 53 | 1010.9 |
| 20260906020704 | 67 | 225 | 0.9 | 0.0 | 0.00 | 0.00 | 0.00 | 52 | 1011.0 |
| 20260906020204 | 67 | 225 | 0.9 | 0.0 | 0.00 | 0.00 | 0.00 | 52 | 1010.7 |
| 20260906015704 | 67 | 225 | 0.9 | 0.0 | 0.00 | 0.00 | 0.00 | 53 | 1010.8 |
| 20260906015204 | 67 | 180 | 1.7 | 0.0 | 0.00 | 0.00 | 0.00 | 53 | 1010.6 |
| 20260906014704 | 67 | 180 | 0.9 | 0.0 | 0.00 | 0.00 | 0.00 | 54 | 1010.7 |
| 20260906014203 | 66 | 293 | 1.7 | 0.0 | 0.00 | 0.00 | 0.00 | 56 | 1010.9 |
| 20260906013704 | 65 | 225 | 0.0 | 0.0 | 0.00 | 0.00 | 0.00 | 56 | 1010.8 |
| 20260906013203 | 65 | 225 | 0.0 | 0.0 | 0.00 | 0.00 | 0.00 | 56 | 1010.9 |
| 20260906012704 | 65 | 225 | 0.0 | 0.0 | 0.00 | 0.00 | 0.00 | 55 | 1010.8 |
| 20260906012204 | 65 | 225 | 0.0 | 0.0 | 0.00 | 0.00 | 0.00 | 55 | 1010.8 |
| 20260906011705 | 65 | 225 | 0.0 | 0.0 | 0.00 | 0.00 | 0.00 | 56 | 1010.8 |
| 20260906011204 | 65 | 225 | 0.9 | 0.0 | 0.00 | 0.00 | 0.00 | 56 | 1010.9 |
| 20260906010703 | 65 | 225 | 0.9 | 0.0 | 0.00 | 0.00 | 0.00 | 55 | 1011.0 |
| 20260906010204 | 65 | 225 | 0.9 | 0.0 | 0.00 | 0.00 | 0.00 | 55 | 1010.9 |
| 20260906005704 | 66 | 225 | 0.9 | 0.0 | 0.00 | 0.00 | 0.00 | 54 | 1011.0 |
| 20260906005204 | 66 | 225 | 0.9 | 0.0 | 0.00 | 0.00 | 0.00 | 55 | 1011.0 |
| 20260906004704 | 65 | 270 | 0.9 | 0.0 | 0.00 | 0.00 | 0.00 | 56 | 1010.9 |
| 20260906004204 | 65 | 180 | 0.9 | 0.0 | 0.00 | 0.00 | 0.00 | 56 | 1011.0 |
| 20260906003704 | 65 | 225 | 0.9 | 0.0 | 0.00 | 0.00 | 0.00 | 56 | 1011.0 |
| 20260906003204 | 66 | 225 | 0.9 | 0.0 | 0.00 | 0.00 | 0.00 | 55 | 1010.9 |
| 20260906002704 | 66 | 225 | 0.9 | 0.0 | 0.00 | 0.00 | 0.00 | 56 | 1010.9 |
| 20260906002204 | 66 | 225 | 0.0 | 0.0 | 0.00 | 0.00 | 0.00 | 56 | 1011.0 |
| 20260906001704 | 66 | 225 | 0.9 | 0.0 | 0.00 | 0.00 | 0.00 | 55 | 1011.2 |
| 20260906001203 | 67 | 225 | 0.0 | 0.0 | 0.00 | 0.00 | 0.00 | 53 | 1011.0 |
| 20260906000704 | 67 | 225 | 0.0 | 0.0 | 0.00 | 0.00 | 0.00 | 53 | 1011.2 |
| 20260906000204 | 68 | 225 | 0.0 | 0.0 | 0.00 | 0.00 | 0.00 | 52 | 1011.0 |
| 20260905235703 | 68 | 225 | 0.9 | 0.0 | 0.00 | 0.00 | 0.00 | 52 | 1011.0 |
| 20260905235204 | 68 | 90 | 0.0 | 0.0 | 0.00 | 0.00 | 0.00 | 52 | 1011.0 |
| 20260905234704 | 67 | 180 | 1.7 | 0.0 | 0.00 | 0.00 | 0.00 | 54 | 1011.1 |
| 20260905234204 | 67 | 225 | 0.0 | 0.0 | 0.00 | 0.00 | 0.00 | 54 | 1010.8 |
| 20260905233704 | 67 | 180 | 0.9 | 0.0 | 0.00 | 0.00 | 0.00 | 54 | 1010.9 |
| 20260905233204 | 67 | 135 | 0.0 | 0.0 | 0.00 | 0.00 | 0.00 | 53 | 1011.0 |
| 20260905232704 | 67 | 225 | 0.0 | 0.0 | 0.00 | 0.00 | 0.00 | 54 | 1010.9 |
| 20260905232204 | 67 | 180 | 0.9 | 0.0 | 0.00 | 0.00 | 0.00 | 54 | 1010.7 |
| 20260905231204 | 66 | 225 | 0.0 | 0.0 | 0.00 | 0.00 | 0.00 | 55 | 1011.0 |
| 20260905230204 | 67 | 270 | 0.0 | 0.0 | 0.00 | 0.00 | 0.00 | 54 | 1011.1 |
| 20260905225704 | 68 | 225 | 0.0 | 0.0 | 0.00 | 0.00 | 0.00 | 53 | 1010.9 |
| 20260905224703 | 69 | 225 | 0.9 | 0.0 | 0.00 | 0.00 | 0.00 | 52 | 1011.2 |
| 20260905223204 | 67 | 225 | 0.9 | 0.0 | 0.00 | 0.00 | 0.00 | 53 | 1010.9 |
| 20260905222704 | 68 | 225 | 0.9 | 0.0 | 0.00 | 0.00 | 0.00 | 53 | 1010.9 |
| 20260905222204 | 68 | 225 | 1.7 | 0.0 | 0.00 | 0.00 | 0.00 | 52 | 1010.9 |
| 20260905221204 | 68 | 225 | 0.0 | 0.0 | 0.00 | 0.00 | 0.00 | 53 | 1010.9 |
| 20260905220204 | 68 | 225 | 0.0 | 0.0 | 0.00 | 0.00 | 0.00 | 52 | 1011.0 |
| 20260905215704 | 69 | 225 | 0.9 | 0.0 | 0.00 | 0.00 | 0.00 | 52 | 1010.9 |
| 20260905215204 | 69 | 270 | 1.7 | 0.0 | 0.00 | 0.00 | 0.00 | 51 | 1011.0 |
| 20260905213703 | 70 | 203 | 1.7 | 0.0 | 0.00 | 0.00 | 0.00 | 52 | 1011.1 |
| 20260905213204 | 69 | 225 | 1.7 | 0.0 | 0.00 | 0.00 | 0.00 | 53 | 1011.3 |
| 20260905212704 | 69 | 180 | 1.7 | 0.0 | 0.00 | 0.00 | 0.00 | 54 | 1011.1 |
| 20260905212204 | 69 | 225 | 0.9 | 0.0 | 0.00 | 0.00 | 0.00 | 54 | 1011.1 |
| 20260905211703 | 69 | 225 | 0.9 | 0.0 | 0.00 | 0.00 | 0.00 | 54 | 1011.1 |
| 20260905211204 | 69 | 135 | 0.9 | 0.0 | 0.00 | 0.00 | 0.00 | 54 | 1011.2 |
| 20260905210704 | 68 | 180 | 0.0 | 0.0 | 0.00 | 0.00 | 0.00 | 54 | 1011.2 |
| 20260905210204 | 68 | 225 | 0.0 | 0.0 | 0.00 | 0.00 | 0.00 | 54 | 1011.3 |
| 20260905205704 | 69 | 225 | 0.0 | 0.0 | 0.00 | 0.00 | 0.00 | 54 | 1011.3 |
| 20260905205204 | 69 | 225 | 0.9 | 0.0 | 0.00 | 0.00 | 0.00 | 54 | 1011.1 |
| 20260905203704 | 69 | 180 | 0.0 | 0.0 | 0.00 | 0.00 | 0.00 | 56 | 1011.0 |
| 20260905203204 | 69 | 225 | 0.0 | 0.0 | 0.00 | 0.00 | 0.00 | 55 | 1011.0 |
| 20260905202204 | 68 | 225 | 1.7 | 0.0 | 0.00 | 0.00 | 0.00 | 59 | 1010.9 |
| 20260905201704 | 67 | 225 | 0.9 | 0.0 | 0.00 | 0.00 | 0.00 | 60 | 1011.1 |
| 20260905200204 | 69 | 225 | 0.9 | 0.0 | 0.00 | 0.00 | 0.00 | 56 | 1011.0 |
| 20260905195704 | 69 | 225 | 1.7 | 0.0 | 0.00 | 0.00 | 0.00 | 55 | 1011.1 |
| 20260905194203 | 72 | 270 | 0.9 | 0.0 | 0.00 | 0.00 | 0.00 | 51 | 1011.0 |
| 20260905193704 | 72 | 225 | 0.9 | 0.0 | 0.00 | 0.00 | 0.00 | 51 | 1011.1 |
| 20260905193204 | 72 | 225 | 1.7 | 0.0 | 0.00 | 0.00 | 0.00 | 51 | 1011.0 |
| 20260905192704 | 71 | 180 | 1.7 | 0.0 | 0.00 | 0.00 | 0.00 | 52 | 1011.2 |
| 20260905192204 | 71 | 180 | 1.7 | 0.0 | 0.00 | 0.00 | 0.00 | 53 | 1011.1 |
| 20260905191704 | 71 | 180 | 0.0 | 0.0 | 0.00 | 0.00 | 0.00 | 52 | 1011.0 |
| 20260905191205 | 71 | 270 | 0.0 | 0.0 | 0.00 | 0.00 | 0.00 | 52 | 1011.0 |
| 20260905185205 | 72 | 225 | 0.0 | 0.0 | 0.00 | 0.00 | 0.00 | 50 | 1010.8 |
| 20260905184704 | 72 | 225 | 0.9 | 0.0 | 0.00 | 0.00 | 0.00 | 50 | 1010.8 |
| 20260905184205 | 72 | 225 | 1.7 | 0.0 | 0.00 | 0.00 | 0.00 | 50 | 1010.7 |
| 20260905183204 | 73 | 180 | 0.9 | 0.0 | 0.00 | 0.00 | 0.00 | 45 | 1010.6 |
| 20260905182203 | 73 | 180 | 1.7 | 0.0 | 0.00 | 0.00 | 0.00 | 46 | 1010.4 |
| 20260905181703 | 73 | 180 | 1.7 | 0.0 | 0.00 | 0.00 | 0.00 | 47 | 1010.3 |
| 20260905181204 | 73 | 180 | 0.9 | 0.0 | 0.00 | 0.00 | 0.00 | 47 | 1010.2 |
| 20260905180704 | 73 | 225 | 0.9 | 0.0 | 0.00 | 0.00 | 0.00 | 48 | 1010.3 |
| 20260905180204 | 73 | 225 | 0.9 | 0.0 | 0.00 | 0.00 | 0.00 | 48 | 1010.3 |
| 20260905175704 | 73 | 180 | 0.9 | 0.0 | 0.00 | 0.00 | 0.00 | 48 | 1010.3 |
| 20260905175204 | 73 | 180 | 0.9 | 0.0 | 0.00 | 0.00 | 0.00 | 49 | 1010.2 |
| 20260905174204 | 73 | 225 | 0.0 | 0.0 | 0.00 | 0.00 | 0.00 | 48 | 1010.2 |
| 20260905173703 | 74 | 225 | 0.0 | 0.0 | 0.00 | 0.00 | 0.00 | 48 | 1009.9 |
| 20260905172703 | 74 | 225 | 0.0 | 0.0 | 0.00 | 0.00 | 0.00 | 47 | 1010.1 |
| 20260905172204 | 74 | 45 | 0.9 | 0.0 | 0.00 | 0.00 | 0.00 | 46 | 1010.0 |
| 20260905171704 | 75 | 45 | 0.0 | 0.0 | 0.00 | 0.00 | 0.00 | 45 | 1009.9 |
| 20260905171204 | 76 | 45 | 1.7 | 0.0 | 0.00 | 0.00 | 0.00 | 44 | 1010.0 |
| 20260905170704 | 77 | 45 | 0.9 | 0.0 | 0.00 | 0.00 | 0.00 | 43 | 1009.9 |
| 20260905170204 | 78 | 180 | 0.9 | 0.0 | 0.00 | 0.00 | 0.00 | 42 | 1009.7 |
| 20260905165704 | 78 | 180 | 1.7 | 0.0 | 0.00 | 0.00 | 0.00 | 42 | 1009.7 |
| 20260905165204 | 78 | 180 | 2.6 | 0.0 | 0.00 | 0.00 | 0.00 | 42 | 1009.5 |
| 20260905164704 | 78 | 180 | 3.5 | 0.0 | 0.00 | 0.00 | 0.00 | 45 | 1009.6 |
| 20260905164204 | 79 | 225 | 5.2 | 0.0 | 0.00 | 0.00 | 0.00 | 45 | 1009.6 |
| 20260905163704 | 79 | 225 | 7.0 | 0.0 | 0.00 | 0.00 | 0.00 | 45 | 1009.4 |
| 20260905163204 | 79 | 180 | 5.2 | 0.0 | 0.00 | 0.00 | 0.00 | 45 | 1009.7 |
| 20260905162704 | 79 | 180 | 3.5 | 0.0 | 0.00 | 0.00 | 0.00 | 45 | 1009.5 |
| 20260905161704 | 80 | 180 | 5.2 | 0.0 | 0.00 | 0.00 | 0.00 | 44 | 1009.5 |
| 20260905161203 | 81 | 180 | 3.5 | 0.0 | 0.00 | 0.00 | 0.00 | 44 | 1009.7 |
| 20260905160203 | 82 | 225 | 6.1 | 0.0 | 0.00 | 0.00 | 0.00 | 40 | 1009.7 |
| 20260905155203 | 82 | 180 | 5.2 | 0.0 | 0.00 | 0.00 | 0.00 | 40 | 1009.5 |
| 20260905154704 | 83 | 180 | 4.3 | 0.0 | 0.00 | 0.00 | 0.00 | 40 | 1009.4 |
| 20260905154204 | 83 | 180 | 5.2 | 0.0 | 0.00 | 0.00 | 0.00 | 39 | 1009.2 |
| 20260905153705 | 83 | 225 | 4.3 | 0.0 | 0.00 | 0.00 | 0.00 | 40 | 1009.4 |
| 20260905152704 | 83 | 225 | 3.5 | 0.0 | 0.00 | 0.00 | 0.00 | 36 | 1009.5 |
| 20260905152204 | 84 | 225 | 7.0 | 0.0 | 0.00 | 0.00 | 0.00 | 36 | 1009.5 |
| 20260905151704 | 84 | 135 | 4.3 | 0.0 | 0.00 | 0.00 | 0.00 | 35 | 1009.4 |
| 20260905151203 | 84 | 135 | 7.0 | 0.0 | 0.00 | 0.00 | 0.00 | 34 | 1009.5 |
| 20260905150704 | 85 | 180 | 6.1 | 0.0 | 0.00 | 0.00 | 0.00 | 33 | 1009.5 |
| 20260905150204 | 86 | 225 | 3.5 | 0.0 | 0.00 | 0.00 | 0.00 | 31 | 1009.5 |
| 20260905145704 | 87 | 180 | 5.2 | 0.0 | 0.00 | 0.00 | 0.00 | 30 | 1009.6 |
| 20260905144704 | 88 | 135 | 1.7 | 0.0 | 0.00 | 0.00 | 0.00 | 25 | 1009.7 |
| 20260905144204 | 89 | 225 | 0.9 | 0.0 | 0.00 | 0.00 | 0.00 | 25 | 1009.5 |
| 20260905143704 | 89 | 225 | 1.7 | 0.0 | 0.00 | 0.00 | 0.00 | 26 | 1009.8 |
| 20260905143204 | 89 | 225 | 2.6 | 0.0 | 0.00 | 0.00 | 0.00 | 25 | 1010.1 |
| 20260905142704 | 89 | 45 | 1.7 | 0.0 | 0.00 | 0.00 | 0.00 | 26 | 1010.1 |
| 20260905142204 | 87 | 180 | 3.5 | 0.0 | 0.00 | 0.00 | 0.00 | 25 | 1010.3 |
| 20260905141705 | 90 | 270 | 2.6 | 0.0 | 0.00 | 0.00 | 0.00 | 23 | 1010.3 |
| 20260905141204 | 90 | 45 | 1.7 | 0.0 | 0.00 | 0.00 | 0.00 | 24 | 1010.1 |
| 20260905140704 | 89 | 45 | 1.7 | 0.0 | 0.00 | 0.00 | 0.00 | 25 | 1010.3 |
| 20260905135703 | 88 | 0 | 2.6 | 0.0 | 0.00 | 0.00 | 0.00 | 23 | 1010.3 |
| 20260905134703 | 88 | 0 | 2.6 | 0.0 | 0.00 | 0.00 | 0.00 | 23 | 1010.6 |
| 20260905134204 | 87 | 45 | 2.6 | 0.0 | 0.00 | 0.00 | 0.00 | 23 | 1010.8 |
| 20260905133704 | 88 | 338 | 1.7 | 0.0 | 0.00 | 0.00 | 0.00 | 23 | 1010.8 |
| 20260905132703 | 87 | 315 | 7.0 | 0.0 | 0.00 | 0.00 | 0.00 | 23 | 1010.6 |
| 20260905132204 | 88 | 315 | 6.1 | 0.0 | 0.00 | 0.00 | 0.00 | 23 | 1010.7 |
| 20260905131704 | 87 | 225 | 1.7 | 0.0 | 0.00 | 0.00 | 0.00 | 25 | 1010.7 |
| 20260905130704 | 88 | 135 | 0.9 | 0.0 | 0.00 | 0.00 | 0.00 | 25 | 1010.3 |
| 20260905130204 | 88 | 135 | 0.9 | 0.0 | 0.00 | 0.00 | 0.00 | 25 | 1010.3 |
| 20260905125204 | 88 | 248 | 1.7 | 0.0 | 0.00 | 0.00 | 0.00 | 25 | 1010.6 |
| 20260905124704 | 87 | 315 | 1.7 | 0.0 | 0.00 | 0.00 | 0.00 | 25 | 1010.6 |
| 20260905123703 | 88 | 45 | 3.5 | 0.0 | 0.00 | 0.00 | 0.00 | 26 | 1010.9 |
| 20260905122704 | 87 | 0 | 2.6 | 0.0 | 0.00 | 0.00 | 0.00 | 26 | 1010.8 |
| 20260905122204 | 88 | 180 | 3.5 | 0.0 | 0.00 | 0.00 | 0.00 | 26 | 1011.0 |
| 20260905121203 | 88 | 0 | 3.5 | 0.0 | 0.00 | 0.00 | 0.00 | 29 | 1011.0 |
| 20260905120704 | 88 | 225 | 3.5 | 0.0 | 0.00 | 0.00 | 0.00 | 30 | 1011.3 |
| 20260905120204 | 87 | 0 | 2.6 | 0.0 | 0.00 | 0.00 | 0.00 | 29 | 1011.2 |
| 20260905115204 | 87 | 90 | 2.6 | 0.0 | 0.00 | 0.00 | 0.00 | 30 | 1011.2 |
| 20260905114704 | 86 | 0 | 3.5 | 0.0 | 0.00 | 0.00 | 0.00 | 30 | 1011.3 |
| 20260905114204 | 85 | 0 | 4.3 | 0.0 | 0.00 | 0.00 | 0.00 | 30 | 1011.4 |
| 20260905113705 | 85 | 315 | 7.0 | 0.0 | 0.00 | 0.00 | 0.00 | 30 | 1011.4 |
| 20260905113204 | 86 | 90 | 5.2 | 0.0 | 0.00 | 0.00 | 0.00 | 29 | 1011.5 |
| 20260905112704 | 86 | 0 | 3.5 | 0.0 | 0.00 | 0.00 | 0.00 | 28 | 1011.6 |
| 20260905111704 | 86 | 45 | 4.3 | 0.0 | 0.00 | 0.00 | 0.00 | 27 | 1011.5 |
| 20260905111204 | 86 | 45 | 4.3 | 0.0 | 0.00 | 0.00 | 0.00 | 28 | 1011.6 |
| 20260905110204 | 86 | 0 | 5.2 | 0.0 | 0.00 | 0.00 | 0.00 | 26 | 1011.7 |
| 20260905105204 | 86 | 270 | 2.6 | 0.0 | 0.00 | 0.00 | 0.00 | 28 | 1011.8 |
| 20260905104704 | 85 | 90 | 2.6 | 0.0 | 0.00 | 0.00 | 0.00 | 28 | 1011.9 |
| 20260905104204 | 85 | 270 | 1.7 | 0.0 | 0.00 | 0.00 | 0.00 | 28 | 1011.7 |
| 20260905103704 | 85 | 270 | 7.0 | 0.0 | 0.00 | 0.00 | 0.00 | 26 | 1011.8 |
| 20260905103204 | 85 | 315 | 7.0 | 0.0 | 0.00 | 0.00 | 0.00 | 26 | 1011.9 |
| 20260905102704 | 85 | 90 | 6.1 | 0.0 | 0.00 | 0.00 | 0.00 | 26 | 1011.8 |
| 20260905102204 | 86 | 0 | 5.2 | 0.0 | 0.00 | 0.00 | 0.00 | 27 | 1012.0 |